Regional Weather Roundup
Issued by NWS Charleston, WV

Home | Current Version | Previous Version | Text Only | Print | Product List | Glossary On
Versions: 1 2 3 4 5 6 7 8 9 10 11 12 13 14 15 16 17 18 19 20 21 22 23 24 25 26 27 28 29 30 31 32 33 34 35 36 37 38 39 40 41 42 43 44 45 46 47 48 49 50
000
ASUS41 KRLX 070110
RWRRLX
West Virginia Regional Weather Roundup
National Weather Service Charleston WV
900 PM EDT MON JUL 06 2015

Note: "fair" indicates few or no clouds below 12,000 feet with no
significant weather and/or obstructions to visibility.

WVZ003-070200-
Northern Panhandle of West Virginia

CITY           SKY/WX    TMP DP  RH WIND       PRES   REMARKS
WHEELING       MOCLDY    71  66  84 SW5       30.02F
$$

WVZ009-070200-
Northwest West Virginia

CITY           SKY/WX    TMP DP  RH WIND       PRES   REMARKS
PARKERSBURG    MOCLDY    74  69  85 S3        30.05F
$$

WVZ006-070200-
Western West Virginia

CITY           SKY/WX    TMP DP  RH WIND       PRES   REMARKS
HUNTINGTON     CLEAR     75  67  76 CALM      30.03S
$$

WVZ015-070200-
West Central West Virginia

CITY           SKY/WX    TMP DP  RH WIND       PRES   REMARKS
CHARLESTON     PTCLDY    74  67  78 S3        30.05F
$$

WVZ022-031-070200-
North Central West Virginia

CITY           SKY/WX    TMP DP  RH WIND       PRES   REMARKS
CLARKSBURG     LGT RAIN  69  68  96 S5        30.06F
MORGANTOWN     MOCLDY    75  68  78 SW6       30.05S
$$

WVZ025-035-042-045-070200-
Southern West Virginia

CITY           SKY/WX    TMP DP  RH WIND       PRES   REMARKS
BECKLEY        PTCLDY    68  63  84 SW5       30.15F
LOGAN            N/A     72  68  88 CALM      30.06F
BLUEFIELD      CLEAR     68  63  84 CALM      30.17F
LEWISBURG      PTCLDY    71  63  75 CALM      30.15S
$$

WVZ047-070200-
Northern Mountains of West Virginia

CITY           SKY/WX    TMP DP  RH WIND       PRES   REMARKS
ELKINS         CLOUDY    69  66  90 CALM      30.11S
$$

WVZ052-070200-
Eastern Panhandle of West Virginia

CITY           SKY/WX    TMP DP  RH WIND       PRES   REMARKS
MARTINSBURG    CLEAR     75  70  84 CALM      30.03R
PETERSBURG     PTCLDY    69  65  86 CALM      30.05S
$$



USA.gov is the U.S. government's official web portal to all federal, state and local government web resources and services.